Weather History for Walla Walla, WA

Change the Weather History Date:

Friday, June 6, 2014

  Actual Average Record
Temperature  
Mean Temperature 66 °F -  
Max Temperature 82 °F 78 °F 99 °F (1972)
Min Temperature 50 °F 54 °F 41 °F (2005)
Cooling Degree Days 1    
Growing Degree Days 16 (Base 50)    
Moisture  
Dew Point 35 °F    
Average Humidity 32    
Maximum Humidity 54    
Minimum Humidity 14    
Precipitation  
Precipitation 0.00 in - - ()
Sea Level Pressure  
Sea Level Pressure 30.00 in    
Wind  
Wind Speed 7 mph (SSW)    
Max Wind Speed 10 mph    
Max Gust Speed -    
Visibility 10 miles    
Events      
Averages and records for this station are not official NWS values.
T = Trace of Precipitation, MM = Missing Value Source: NWS Daily Summary

Daily Weather History Graph

Daily Weather History Graph

Search for Another Location

Airport:

Trip Planner

Search our weather history database for the weather conditions in past years. The results will help you decide how hot, cold, wet, or windy it might be!

Date:

Astronomy

Jun. 06, 2014 Rise Set
Actual Time 5:03 AM PDT 8:41 PM PDT
Civil Twilight 4:25 AM PDT 9:19 PM PDT
Nautical Twilight 3:34 AM PDT 10:10 PM PDT
Astronomical Twilight 2:26 AM PDT 11:18 PM PDT
Moon 1:44 PM PDT (6/6) 1:19 AM PDT (6/6)
Length of Visible Light 16h 53m
Length of Day
15h 37m
First Quarter, 59% of the Moon is Illuminated
Jun 6
First Quarter
Jun 12
Full
Jun 19
Last Quarter
Jun 27
New
Jul 5
First Quarter

Hourly Weather History & Observations

Time (PDT) Temp. Dew Point Humidity Pressure Visibility Wind Dir Wind Speed Gust Speed Precip Events Conditions
12:53 AM 59.0 °F 35.1 °F 41% 29.96 in 10.0 mi East 8.1 mph - N/A   Clear
1:53 AM 57.9 °F 32.0 °F 37% 29.96 in 10.0 mi East 9.2 mph - N/A   Clear
2:53 AM 50.0 °F 34.0 °F 54% 29.99 in 10.0 mi Calm Calm - N/A   Clear
3:53 AM 51.1 °F 35.1 °F 54% 30.01 in 10.0 mi East 5.8 mph - N/A   Clear
4:53 AM 51.1 °F 34.0 °F 52% 30.01 in 10.0 mi ESE 5.8 mph - N/A   Clear
5:53 AM 57.0 °F 34.0 °F 42% 30.01 in 10.0 mi South 6.9 mph - N/A   Clear
6:53 AM 59.0 °F 36.0 °F 42% 30.03 in 10.0 mi South 6.9 mph - N/A   Clear
8:53 AM 66.0 °F 37.9 °F 36% 30.05 in 10.0 mi WSW 6.9 mph - N/A   Clear
9:53 AM 68.0 °F 37.9 °F 33% 30.05 in 10.0 mi SW 8.1 mph - N/A   Partly Cloudy
10:53 AM 70.0 °F 37.9 °F 31% 30.05 in 10.0 mi WSW 9.2 mph - N/A   Clear
11:53 AM 73.0 °F 37.9 °F 28% 30.04 in 10.0 mi North - - N/A   Clear
12:53 PM 75.9 °F 34.0 °F 22% 30.03 in 10.0 mi SW 10.4 mph - N/A   Clear
1:53 PM 79.0 °F 30.9 °F 17% 30.01 in 10.0 mi South 8.1 mph - N/A   Clear
2:53 PM 78.1 °F 28.9 °F 17% 30.00 in 10.0 mi WSW 8.1 mph - N/A   Clear
3:53 PM 82.0 °F 28.0 °F 14% 29.99 in 10.0 mi WNW 10.4 mph - N/A   Clear
4:53 PM 81.0 °F 30.0 °F 16% 29.97 in 10.0 mi WNW 10.4 mph - N/A   Clear
5:53 PM 79.0 °F 32.0 °F 18% 29.96 in 10.0 mi WSW 10.4 mph - N/A   Clear
6:53 PM 79.0 °F 34.0 °F 20% 29.97 in 10.0 mi WNW 9.2 mph - N/A   Clear
7:53 PM 73.9 °F 36.0 °F 25% 29.96 in 10.0 mi WSW 4.6 mph - N/A   Clear
8:53 PM 71.1 °F 35.1 °F 27% 29.96 in 10.0 mi SSE 4.6 mph - N/A   Clear
9:53 PM 64.0 °F 39.0 °F 40% 29.97 in 10.0 mi ESE 9.2 mph - N/A   Clear
10:53 PM 62.1 °F 37.0 °F 39% 29.97 in 10.0 mi East 9.2 mph - N/A   Clear
11:53 PM 60.1 °F 37.0 °F 42% 29.97 in 10.0 mi East 9.2 mph - N/A   Clear